Weather Roundup
Issued by NWS

Home | Current Version | Previous Version | Text Only | Print | Product List | Glossary On
Versions: 1 2 3 4 5 6 7 8 9 10 11 12 13 14 15 16 17 18 19 20 21 22 23 24 25 26 27 28 29 30 31 32 33 34 35 36 37 38 39 40 41 42 43 44 45 46 47 48 49 50
755
NZUS93 KARX 282210
HRRWXR

CURRENT HOURLY OBSERVATIONS ACROSS
MUCH OF THE UPPER MISSISSIPPI VALLEY
NATIONAL WEATHER SERVICE LA CROSSE WI
500 PM CDT WED JUN 28 2017


...SOUTHEAST MINNESOTA...


CITY           SKY/WX    TMP DP  RH WIND       PRES   REMARKS
ROCHESTER      MOSUNNY   76  68  76 SW18      29.58F
ROCHESTER/MAYO FAIR      78  65  64 SW14G23   29.56F
WINONA         CLOUDY    77  66  69 SW13      29.57F
AUSTIN         SUNNY     81  66  61 SW14      29.58F
ALBERT LEA     SUNNY     81  66  61 SW17      29.57F
DODGE CENTER   SUNNY     81  66  61 SW17      29.57F
PRESTON        CLOUDY    71  65  82 S13       29.61F
OWATONNA       MOSUNNY   82  70  65 SW20G25   29.55F
FARIBAULT      MOSUNNY   82  64  54 W17G31    29.54F
$$

...ELSEWHERE IN MINNESOTA...


CITY           SKY/WX    TMP DP  RH WIND       PRES   REMARKS
MINNEAPOLIS    PTSUNNY   76  70  82 NW9       29.51R THUNDER
INTNL FALLS    LGT RAIN  63  60  90 E7        29.58S
DULUTH         LGT RAIN  57  57 100 E8        29.55F
RED WING       CLOUDY    77  64  65 NW8       29.50S THUNDER
REDWOOD FALLS  MOSUNNY   84  62  47 W16G24    29.55R
MANKATO        MOSUNNY   82  67  60 W18       29.55F
WORTHINGTON    PTSUNNY   80  64  58 W16G22    29.63S
FAIRMONT       MOSUNNY   84  65  52 W18       29.58F
$$

...SOUTHWEST WISCONSIN...


CITY           SKY/WX    TMP DP  RH WIND       PRES   REMARKS
LA CROSSE      CLOUDY    74  68  81 S12       29.60S
PRAIRIE DU CHI CLOUDY    72  68  89 E5        29.62F
BOSCOBEL       TSTM      68  65  90 MISG      29.68S VSB 1/2
LONE ROCK      TSTM      74  68  81 NW10      29.73R
PLATTEVILLE    PTSUNNY   76  71  85 S14G21    29.70F
FORT MC COY    CLOUDY    68  66  93 S6        29.63R
CAMP DOUGLAS   LGT RAIN  68  66  94 W3        29.64F
MAUSTON-NEW LI LGT RAIN  69  67  94 S13G21    29.60F
VIROQUA        MOCLDY    68  68 100 SW9G20    29.65F
WIS DELLS      CLOUDY    69  66  91 S15G22    29.68F
$$

...ELSEWHERE IN WISCONSIN...


CITY           SKY/WX    TMP DP  RH WIND       PRES   REMARKS
MILWAUKEE      LGT RAIN  70  66  87 S12       29.79S
MADISON        CLOUDY    73  66  78 S17G23    29.72F
GREEN BAY      RAIN      66  66 100 S14G21    29.73F FOG
EAU CLAIRE     CLOUDY    73  66  78 S14       29.54F
BLACK RVR FLS  MOCLDY    73  69  88 SW6       29.60F
MEDFORD        CLOUDY    66  64  91 S13G18    29.61F
WAUSAU         CLOUDY    66  64  93 S13       29.64F
WIS RAPIDS     CLOUDY    67  65  93 S8        29.65F
MARSHFIELD     CLOUDY    67  63  87 S12       29.62F
RICE LAKE      DRIZZLE   71  66  84 SE12      29.56F
$$

...NORTHEAST IOWA...


CITY           SKY/WX    TMP DP  RH WIND       PRES   REMARKS
WATERLOO       CLOUDY    80  67  64 SW21G28   29.61S THUNDER
DUBUQUE        MOSUNNY   78  69  73 S24G33    29.69F
DECORAH        CLOUDY    64  63  94 SW9G16    29.64S
MASON CITY     CLOUDY    81  70  69 SW17      29.61F
CHARLES CITY   CLOUDY    70  70 100 SW12      29.61F
OELWEIN        CLOUDY    79  70  73 SW18G28   29.66R
$$

...ELSEWHERE IN IOWA...


CITY           SKY/WX    TMP DP  RH WIND       PRES   REMARKS
DES MOINES     TSTM      80  72  76 S16G24    29.66F
IOWA CITY      PTSUNNY   86  70  58 S16G29    29.70F HX  90
FORT DODGE     CLOUDY    72  68  88 E3        29.61F THUNDER
MARSHALLTOWN   CLOUDY    82  71  69 S21G30    29.61F
CEDAR RAPIDS   CLOUDY    81  71  71 S17G28    29.68F
$$

...NORTHERN ILLINOIS...


CITY           SKY/WX    TMP DP  RH WIND       PRES   REMARKS
CHICAGO-OHARE  CLOUDY    80  59  48 S28G33    29.82F
CHICAGO-MIDWAY CLOUDY    81  59  47 S23G32    29.84R
MOLINE         CLOUDY    81  69  67 S10G20    29.74F
ROCKFORD       CLOUDY    75  67  76 SW16G23   29.79F
PEORIA         CLOUDY    84  61  45 S20G26    29.82F
$$

NOTE: "FAIR" INDICATES FEW OR NO CLOUDS BELOW 12,000 FEET WITH NO
SIGNIFICANT WEATHER AND/OR OBSTRUCTIONS TO VISIBILITY. WIND
SPEEDS ARE IN MILES-PER-HOUR.




USA.gov is the U.S. government's official web portal to all federal, state and local government web resources and services.